CW8164 Weather Reports


time (UTC)temp
C
wind
direction
speed
KPH
gust
KPH
rain 1hr
cm
rain 24hr
cm
rain mn
cm
humidity
%
barometer
mb
20260505140403 12 243 0.0 0.0 0.00 0.00 0.00 87 1015.2
20260505124904 12 250 0.0 0.0 0.00 0.00 0.00 88 1014.9
20260505123403 12 250 0.0 0.0 0.00 0.00 0.00 88 1014.9
20260505122903 12 250 0.0 0.0 0.00 0.00 0.00 89 1014.8
20260505122403 12 250 0.0 0.0 0.00 0.00 0.00 88 1014.9
20260505121903 12 250 0.0 0.0 0.00 0.00 0.00 88 1014.9
20260505121403 12 250 0.0 0.0 0.00 0.00 0.00 88 1014.8
20260505120403 12 250 0.0 0.0 0.00 0.00 0.00 88 1014.8
20260505115904 12 250 0.0 0.0 0.00 0.00 0.00 88 1014.8
20260505115403 12 250 0.0 0.0 0.00 0.00 0.00 88 1014.7
20260505114903 12 250 0.0 0.0 0.00 0.00 0.00 88 1014.7
20260505114404 12 250 0.0 0.0 0.00 0.00 0.00 88 1014.7
20260505113402 12 250 0.0 0.0 0.00 0.00 0.00 88 1014.7
20260505112904 12 250 0.0 0.0 0.00 0.00 0.00 88 1014.8
20260505111903 12 250 0.0 0.0 0.00 0.00 0.00 88 1014.7
20260505111403 12 250 0.0 0.0 0.00 0.00 0.00 88 1014.7
20260505110903 12 250 0.0 0.0 0.00 0.00 0.00 88 1014.7
20260505101903 12 250 0.0 0.0 0.00 0.00 0.00 88 1014.3
20260505101404 12 248 0.0 0.0 0.00 0.00 0.00 88 1014.3
20260505100903 12 252 0.0 0.0 0.00 0.00 0.00 88 1014.3
20260505100403 12 248 0.0 0.0 0.00 0.00 0.00 88 1014.3
20260505095903 12 230 0.0 0.0 0.00 0.00 0.00 88 1014.3
20260505094903 12 230 0.0 3.2 0.00 0.00 0.00 87 1014.2
20260505094403 12 230 0.0 3.2 0.00 0.00 0.00 87 1014.2
20260505093903 12 230 0.0 0.0 0.00 0.00 0.00 87 1014.2
20260505093403 12 230 0.0 0.0 0.00 0.00 0.00 87 1014.2
20260505092903 12 230 0.0 1.6 0.00 0.00 0.00 87 1014.2
20260505092403 12 230 0.0 1.6 0.00 0.00 0.00 87 1014.0
20260505091903 12 230 0.0 0.0 0.00 0.00 0.00 87 1014.0
20260505091402 12 230 0.0 0.0 0.00 0.00 0.00 88 1014.0
20260505090903 12 230 0.0 0.0 0.00 0.00 0.00 87 1014.0
20260505090403 12 230 0.0 0.0 0.00 0.00 0.00 87 1013.9
20260505085903 12 232 0.0 3.2 0.00 0.00 0.00 87 1013.9
20260505084904 12 225 0.0 0.0 0.00 0.00 0.00 87 1013.9
20260505084403 12 225 0.0 0.0 0.00 0.00 0.00 88 1013.8
20260505083903 12 227 0.0 0.0 0.00 0.00 0.00 88 1013.9
20260505083403 11 228 0.0 0.0 0.00 0.00 0.00 88 1013.7
20260505081903 11 224 0.0 0.0 0.00 0.00 0.00 89 1013.7
20260505081403 11 236 0.0 0.0 0.00 0.00 0.00 89 1013.7
20260505080403 11 236 0.0 0.0 0.00 0.00 0.00 88 1013.6
20260505074403 11 236 0.0 0.0 0.00 0.00 0.00 87 1013.3
20260505073903 11 236 0.0 0.0 0.00 0.00 0.00 86 1013.3
20260505073402 11 236 0.0 0.0 0.00 0.00 0.00 86 1013.3
20260505072403 12 236 0.0 0.0 0.00 0.00 0.00 85 1013.1
20260505071903 12 236 0.0 0.0 0.00 0.00 0.00 85 1013.1
20260505070902 12 236 0.0 0.0 0.00 0.00 0.00 83 1013.0
20260505070403 12 236 0.0 0.0 0.00 0.00 0.00 83 1013.0
20260505065902 12 236 0.0 0.0 0.00 0.00 0.00 83 1012.9
20260505065403 12 218 0.0 1.6 0.00 0.00 0.00 83 1012.8
20260505064902 12 218 0.0 1.6 0.00 0.00 0.00 82 1012.7
20260505064403 13 219 0.0 0.0 0.00 0.00 0.00 81 1012.7
20260505063902 13 219 0.0 0.0 0.00 0.00 0.00 81 1012.6
20260505063403 13 228 0.0 0.0 0.00 0.00 0.00 80 1012.4
20260505062904 13 228 0.0 0.0 0.00 0.00 0.00 80 1012.4
20260505062403 13 319 0.0 1.6 0.00 0.00 0.00 79 1012.3
20260505061904 13 349 0.0 3.2 0.00 0.00 0.00 79 1012.2
20260505061403 13 9 0.0 3.2 0.00 0.00 0.00 78 1012.2
20260505060903 14 22 1.6 3.2 0.00 0.00 0.00 77 1012.1
20260505060403 14 32 0.0 3.2 0.00 0.00 0.00 77 1012.1
20260505055903 14 10 0.0 3.2 0.00 0.00 0.00 76 1012.1
20260505054903 15 192 0.0 4.8 0.00 0.00 0.00 75 1012.1
20260505054403 15 298 1.6 4.8 0.00 0.00 0.00 75 1012.0
20260505053904 15 249 1.6 3.2 0.00 0.00 0.00 74 1012.1
20260505053403 15 42 0.0 0.0 0.00 0.00 0.00 74 1012.1
20260505052902 16 49 0.0 3.2 0.00 0.00 0.00 72 1012.0
20260505052403 16 43 0.0 3.2 0.00 0.00 0.00 71 1012.0
20260505051402 16 101 0.0 4.8 0.00 0.00 0.00 70 1012.0
20260505050903 16 349 0.0 4.8 0.00 0.00 0.00 70 1011.9
20260505050403 17 97 0.0 4.8 0.00 0.00 0.00 70 1011.8
20260505041403 17 187 0.0 4.8 0.00 0.00 0.00 74 1011.1
20260505040403 17 207 0.0 3.2 0.00 0.00 0.00 71 1010.9
20260505035903 18 231 0.0 3.2 0.00 0.00 0.00 69 1010.9
20260505034903 18 186 0.0 4.8 0.00 0.00 0.00 66 1010.7
20260505033903 18 208 0.0 1.6 0.00 0.00 0.00 67 1010.6
20260505033403 18 262 0.0 3.2 0.00 0.00 0.00 70 1010.5
20260505032904 18 262 0.0 4.8 0.00 0.00 0.00 70 1010.4
20260505032403 18 258 3.2 4.8 0.00 0.00 0.00 74 1010.4
20260505031903 19 210 0.0 0.0 0.00 0.00 0.00 75 1010.2
20260505031403 19 210 0.0 0.0 0.00 0.00 0.00 73 1010.0
20260505030903 20 210 0.0 0.0 0.00 0.00 0.00 72 1010.0
20260505030402 20 210 0.0 0.0 0.00 0.00 0.00 71 1009.9
20260505025904 20 210 0.0 0.0 0.00 0.00 0.00 70 1009.8
20260505025403 20 210 0.0 0.0 0.00 0.00 0.00 69 1009.8
20260505024903 21 210 0.0 0.0 0.00 0.00 0.00 68 1009.8
20260505024403 21 213 0.0 3.2 0.00 0.00 0.00 67 1009.7
20260505023903 21 214 0.0 3.2 0.00 0.00 0.00 65 1009.6
20260505022403 22 219 1.6 4.8 0.00 0.00 0.00 61 1009.6
20260505020903 22 198 1.6 9.7 0.00 0.00 0.00 58 1009.7
20260505015903 23 224 0.0 4.8 0.00 0.00 0.00 56 1009.7
20260505015403 23 215 1.6 8.0 0.00 0.00 0.00 56 1009.7
20260505014403 23 198 1.6 8.0 0.00 0.00 0.00 57 1009.8
20260505013904 23 211 0.0 4.8 0.00 0.00 0.00 56 1009.7
20260505013403 23 239 0.0 8.0 0.00 0.00 0.00 54 1009.8
20260505012903 24 167 0.0 8.0 0.00 0.00 0.00 55 1009.8
20260505012403 24 174 3.2 8.0 0.00 0.00 0.00 52 1009.8
20260505011902 24 229 3.2 8.0 0.00 0.00 0.00 53 1009.9
20260505011403 24 135 1.6 4.8 0.00 0.00 0.00 53 1009.9
20260505010903 24 291 0.0 4.8 0.00 0.00 0.00 53 1009.9
20260505010403 24 11 1.6 4.8 0.00 0.00 0.00 54 1010.0
20260505005403 24 212 0.0 4.8 0.00 0.00 0.00 54 1010.0
20260505004903 24 172 3.2 4.8 0.00 0.00 0.00 51 1010.0
20260505004403 24 142 0.0 4.8 0.00 0.00 0.00 54 1010.0
20260505003903 24 331 0.0 4.8 0.00 0.00 0.00 54 1010.1
20260505003403 24 226 1.6 4.8 0.00 0.00 0.00 52 1010.2
20260505002903 24 268 1.6 3.2 0.00 0.00 0.00 54 1010.2
20260505002403 24 302 0.0 4.8 0.00 0.00 0.00 54 1010.2
20260505001903 23 166 0.0 11.3 0.00 0.00 0.00 53 1010.3
20260505001403 23 182 3.2 11.3 0.00 0.00 0.00 53 1010.3
20260505000903 23 150 4.8 9.7 0.00 0.00 0.00 53 1010.3
20260504235903 23 296 1.6 9.7 0.00 0.00 0.00 55 1010.5
20260504235403 23 203 1.6 14.5 0.00 0.00 0.00 55 1010.4
20260504234903 23 266 4.8 14.5 0.00 0.00 0.00 53 1010.5
20260504234402 23 220 1.6 8.0 0.00 0.00 0.00 52 1010.5
20260504233903 23 273 0.0 4.8 0.00 0.00 0.00 55 1010.4
20260504233403 23 261 0.0 3.2 0.00 0.00 0.00 56 1010.5
20260504232402 23 240 0.0 4.8 0.00 0.00 0.00 59 1010.5
20260504231903 23 107 0.0 8.0 0.00 0.00 0.00 54 1010.6
20260504231403 23 252 1.6 8.0 0.00 0.00 0.00 54 1010.5
20260504230903 23 189 1.6 8.0 0.00 0.00 0.00 56 1010.6
20260504230403 23 197 3.2 8.0 0.00 0.00 0.00 54 1010.7
20260504225903 23 320 3.2 4.8 0.00 0.00 0.00 54 1010.8
20260504225403 23 145 0.0 4.8 0.00 0.00 0.00 55 1010.8
20260504224903 23 266 1.6 4.8 0.00 0.00 0.00 57 1010.9
20260504224403 23 272 3.2 4.8 0.00 0.00 0.00 58 1010.9
20260504223903 22 52 1.6 8.0 0.00 0.00 0.00 58 1011.0
20260504223403 22 239 1.6 8.0 0.00 0.00 0.00 56 1011.1
20260504222903 22 314 0.0 4.8 0.00 0.00 0.00 59 1011.1
20260504222403 22 251 1.6 9.7 0.00 0.00 0.00 58 1011.2
20260504221903 21 295 3.2 9.7 0.00 0.00 0.00 57 1011.3
20260504221403 21 225 3.2 9.7 0.00 0.00 0.00 57 1011.3
20260504220902 21 224 1.6 8.0 0.00 0.00 0.00 58 1011.4
20260504220403 21 85 3.2 9.7 0.00 0.00 0.00 59 1011.5
20260504215903 21 185 4.8 9.7 0.00 0.00 0.00 58 1011.6
20260504215403 21 205 3.2 8.0 0.00 0.00 0.00 61 1011.6
20260504214903 21 341 1.6 9.7 0.00 0.00 0.00 64 1011.7
20260504214403 21 221 1.6 9.7 0.00 0.00 0.00 63 1011.7
20260504213403 20 130 3.2 9.7 0.00 0.00 0.00 62 1011.8
20260504212903 20 171 1.6 9.7 0.00 0.00 0.00 61 1011.9
20260504212403 20 120 3.2 9.7 0.00 0.00 0.00 61 1011.9
20260504211903 20 276 3.2 8.0 0.00 0.00 0.00 61 1012.0
20260504211403 20 244 3.2 11.3 0.00 0.00 0.00 63 1012.1
20260504210903 20 257 4.8 11.3 0.00 0.00 0.00 62 1012.1
20260504210403 20 294 3.2 11.3 0.00 0.00 0.00 67 1012.3
20260504205903 20 246 1.6 9.7 0.00 0.00 0.00 64 1012.2
20260504205403 20 286 3.2 9.7 0.00 0.00 0.00 65 1012.3
20260504204903 20 355 3.2 9.7 0.00 0.00 0.00 66 1012.4
20260504203904 19 226 3.2 9.7 0.00 0.00 0.00 65 1012.6
20260504203403 19 230 1.6 9.7 0.00 0.00 0.00 65 1012.6
20260504202904 19 175 1.6 9.7 0.00 0.00 0.00 64 1012.8
20260504202403 19 228 4.8 9.7 0.00 0.00 0.00 66 1012.7
20260504201903 19 288 1.6 9.7 0.00 0.00 0.00 69 1012.6
20260504200903 18 249 1.6 9.7 0.00 0.00 0.00 69 1012.8
20260504200404 18 331 0.0 11.3 0.00 0.00 0.00 68 1012.9
20260504195903 18 221 4.8 11.3 0.00 0.00 0.00 68 1012.9
20260504195404 18 203 3.2 9.7 0.00 0.00 0.00 67 1012.9
20260504194903 18 223 1.6 9.7 0.00 0.00 0.00 69 1012.9
20260504194403 17 110 0.0 8.0 0.00 0.00 0.00 71 1013.0
20260504193904 17 85 3.2 11.3 0.00 0.00 0.00 69 1013.0
20260504193402 17 169 1.6 11.3 0.00 0.00 0.00 70 1013.0
20260504192402 17 317 0.0 9.7 0.00 0.00 0.00 71 1013.1
20260504191903 17 224 4.8 11.3 0.00 0.00 0.00 71 1013.2
20260504191403 17 289 3.2 11.3 0.00 0.00 0.00 74 1013.2
20260504190903 17 179 4.8 14.5 0.00 0.00 0.00 72 1013.2
20260504190403 16 145 6.4 14.5 0.00 0.00 0.00 71 1013.4
20260504185903 17 69 4.8 11.3 0.00 0.00 0.00 70 1013.4
20260504185403 17 124 3.2 11.3 0.00 0.00 0.00 72 1013.4
20260504184903 17 323 3.2 9.7 0.00 0.00 0.00 70 1013.4
20260504184403 16 158 1.6 4.8 0.00 0.00 0.00 74 1013.5
20260504183903 16 287 1.6 8.0 0.00 0.00 0.00 74 1013.5
20260504183403 16 143 3.2 8.0 0.00 0.00 0.00 72 1013.5
20260504182903 16 139 0.0 9.7 0.00 0.00 0.00 73 1013.4
20260504182403 16 69 4.8 9.7 0.00 0.00 0.00 72 1013.5
20260504181902 16 211 1.6 9.7 0.00 0.00 0.00 76 1013.4
20260504181403 15 144 1.6 11.3 0.00 0.00 0.00 75 1013.5
20260504180903 15 292 3.2 11.3 0.00 0.00 0.00 75 1013.5
20260504180403 15 274 3.2 11.3 0.00 0.00 0.00 77 1013.4
20260504175903 15 241 3.2 11.3 0.00 0.00 0.00 74 1013.4
20260504175403 15 315 1.6 9.7 0.00 0.00 0.00 76 1013.4
20260504174903 15 285 1.6 9.7 0.00 0.00 0.00 76 1013.5
20260504173903 15 120 3.2 9.7 0.00 0.00 0.00 77 1013.4
20260504173403 15 92 4.8 14.5 0.00 0.00 0.00 76 1013.4
20260504172902 15 83 3.2 14.5 0.00 0.00 0.00 76 1013.4
20260504172403 15 28 3.2 8.0 0.00 0.00 0.00 78 1013.4
20260504171903 15 220 3.2 9.7 0.00 0.00 0.00 76 1013.4
20260504170904 15 89 1.6 9.7 0.00 0.00 0.00 77 1013.4
20260504170403 15 118 3.2 11.3 0.00 0.00 0.00 77 1013.3
20260504160403 15 89 1.6 16.1 0.00 0.00 0.00 76 1013.2
20260504150903 15 118 1.6 11.3 0.00 0.00 0.00 76 1012.8
20260504150403 15 85 3.2 11.3 0.00 0.00 0.00 77 1012.8